GW4207 Weather Reports


time (UTC)temp
C
wind
direction
speed
KPH
gust
KPH
rain 1hr
cm
rain 24hr
cm
rain mn
cm
humidity
%
barometer
mb
20260508214905 16 76 3.2 4.8 0.00 0.00 0.00 65 1007.6
20260508214402 16 55 0.0 6.4 0.00 0.00 0.00 65 1007.5
20260508213906 16 128 3.2 8.0 0.00 0.00 0.00 66 1007.5
20260508213405 16 341 0.0 8.0 0.00 0.00 0.00 67 1007.5
20260508213135 17 116 0.0 6.4 0.00 0.00 0.00 68 1007.5
20260508212415 17 50 0.0 6.4 0.00 0.00 0.00 67 1007.7
20260508211905 17 321 0.0 6.4 0.00 0.00 0.00 67 1007.5
20260508211403 17 72 1.6 8.0 0.00 0.00 0.00 66 1007.7
20260508211123 17 290 1.6 8.0 0.00 0.00 0.00 65 1007.7
20260508211045 17 58 0.0 6.4 0.00 0.00 0.00 63 1007.9
20260508205904 17 49 3.2 6.4 0.00 0.00 0.00 63 1007.9
20260508205409 17 153 3.2 8.0 0.00 0.00 0.00 62 1007.9
20260508204858 17 43 0.0 9.7 0.00 0.00 0.00 61 1007.7
20260508204359 17 135 0.0 9.7 0.00 0.00 0.00 58 1007.8
20260508204347 18 124 0.0 9.7 0.00 0.00 0.00 58 1008.1
20260508203634 18 163 3.2 9.7 0.00 0.00 0.00 59 1007.9
20260508202901 17 138 1.6 6.4 0.00 0.00 0.00 59 1007.8
20260508202413 17 101 0.0 4.8 0.00 0.00 0.00 59 1007.8
20260508201900 18 117 1.6 6.4 0.00 0.00 0.00 59 1008.0
20260508201401 18 38 0.0 6.4 0.00 0.00 0.00 58 1008.1
20260508200900 18 281 0.0 4.8 0.00 0.00 0.00 60 1008.0
20260508200357 18 102 0.0 4.8 0.00 0.00 0.00 60 1008.3
20260508195857 18 50 0.0 6.4 0.00 0.00 0.00 60 1008.4
20260508195410 18 293 0.0 6.4 0.00 0.00 0.00 61 1008.4
20260508194900 18 7 0.0 6.4 0.00 0.00 0.00 61 1008.2
20260508194357 18 0 0.0 8.0 0.00 0.00 0.00 59 1008.7
20260508193857 18 316 3.2 8.0 0.00 0.00 0.00 57 1008.6
20260508193358 18 150 4.8 6.4 0.00 0.00 0.00 59 1009.1
20260508192858 18 56 0.0 6.4 0.00 0.00 0.00 61 1008.8
20260508192620 17 349 1.6 6.4 0.00 0.00 0.00 61 1008.8
20260508191907 17 148 3.2 8.0 0.00 0.00 0.00 62 1008.7
20260508191356 16 47 0.0 8.0 0.00 0.00 0.00 60 1009.1
20260508190854 17 106 0.0 6.4 0.00 0.00 0.00 61 1009.1
20260508190353 17 335 3.2 6.4 0.00 0.00 0.00 57 1009.3
20260508185853 17 60 0.0 8.0 0.00 0.00 0.00 59 1009.2
20260508185353 17 139 1.6 8.0 0.00 0.00 0.00 59 1009.5
20260508184906 17 309 0.0 8.0 0.00 0.00 0.00 59 1009.3
20260508184355 17 350 0.0 6.4 0.00 0.00 0.00 59 1009.5
20260508183853 17 17 1.6 6.4 0.00 0.00 0.00 59 1009.4
20260508183615 18 87 0.0 6.4 0.00 0.00 0.00 59 1009.8
20260508182853 18 13 0.0 4.8 0.00 0.00 0.00 61 1009.4
20260508182352 17 88 3.2 9.7 0.00 0.00 0.00 63 1009.5
20260508182126 17 209 0.0 9.7 0.00 0.00 0.00 62 1009.8
20260508181835 17 108 3.2 6.4 0.00 0.00 0.00 62 1009.5
20260508180847 17 134 3.2 6.4 0.00 0.00 0.00 63 1009.8
20260508180615 17 349 1.6 8.0 0.00 0.00 0.00 64 1009.9
20260508180130 16 209 0.0 8.0 0.00 0.00 0.00 65 1009.8
20260508175347 16 139 3.2 8.0 0.00 0.00 0.00 65 1009.9
20260508175339 16 127 0.0 6.4 0.00 0.00 0.00 64 1009.9
20260508174354 16 231 0.0 6.4 0.00 0.00 0.00 63 1010.1
20260508173851 17 125 4.8 6.4 0.00 0.00 0.00 62 1010.2
20260508173351 16 113 3.2 4.8 0.00 0.00 0.00 63 1010.1
20260508172855 16 136 0.0 8.0 0.00 0.00 0.00 63 1010.0
20260508172357 16 304 0.0 8.0 0.00 0.00 0.00 63 1010.2
20260508171852 16 25 0.0 4.8 0.00 0.00 0.00 63 1010.4
20260508171349 16 136 1.6 6.4 0.00 0.00 0.00 63 1010.6
20260508171123 16 64 0.0 6.4 0.00 0.00 0.00 62 1010.4
20260508170349 16 13 1.6 6.4 0.00 0.00 0.00 65 1010.6
20260508165851 16 79 1.6 6.4 0.00 0.00 0.00 63 1010.5
20260508165349 16 350 1.6 4.8 0.00 0.00 0.00 64 1010.7
20260508164853 16 37 1.6 4.8 0.00 0.00 0.00 64 1010.9
20260508164610 16 86 0.0 3.2 0.00 0.00 0.00 63 1010.9
20260508163846 16 49 3.2 3.2 0.00 0.00 0.00 64 1010.9
20260508163134 16 57 3.2 4.8 0.00 0.00 0.00 65 1010.9
20260508162637 16 31 1.6 4.8 0.00 0.00 0.00 65 1011.1
20260508162132 16 347 3.2 6.4 0.00 0.00 0.00 65 1010.9
20260508161636 16 51 3.2 6.4 0.00 0.00 0.00 66 1011.3
20260508161133 16 129 1.6 4.8 0.00 0.00 0.00 67 1011.4
20260508160626 15 130 0.0 3.2 0.00 0.00 0.00 68 1011.5
20260508155925 15 15 0.0 8.0 0.00 0.00 0.00 67 1011.3
20260508155422 15 66 0.0 3.2 0.00 0.00 0.00 66 1011.5
20260508155142 15 8 1.6 3.2 0.00 0.00 0.00 66 1011.6
20260508154436 15 336 1.6 4.8 0.00 0.00 0.00 67 1011.7
20260508153924 15 34 0.0 4.8 0.00 0.00 0.00 68 1011.3
20260508153425 14 59 1.6 4.8 0.00 0.00 0.00 69 1011.4
20260508153145 14 309 0.0 4.8 0.00 0.00 0.00 71 1011.4
20260508152424 14 40 1.6 4.8 0.00 0.00 0.00 71 1011.5
20260508152150 13 21 3.2 4.8 0.00 0.00 0.00 70 1011.7
20260508151700 13 55 0.0 4.8 0.00 0.00 0.00 69 1011.6
20260508150927 13 135 0.0 4.8 0.00 0.00 0.00 71 1011.5
20260508150422 13 63 0.0 6.4 0.00 0.00 0.00 71 1011.6
20260508145921 13 96 1.6 6.4 0.00 0.00 0.00 71 1011.8
20260508145422 12 42 0.0 6.4 0.00 0.00 0.00 72 1011.6
20260508144920 12 88 4.8 6.4 0.00 0.00 0.00 72 1011.8
20260508144421 12 37 0.0 4.8 0.00 0.00 0.00 73 1011.6
20260508144143 12 21 3.2 6.4 0.00 0.00 0.00 74 1011.9
20260508143421 12 45 1.6 6.4 0.00 0.00 0.00 74 1011.6
20260508142918 12 105 4.8 6.4 0.00 0.00 0.00 74 1011.7
20260508142420 11 29 3.2 4.8 0.00 0.00 0.00 74 1011.7
20260508141918 11 117 1.6 6.4 0.00 0.00 0.00 74 1011.9
20260508141419 11 105 3.2 6.4 0.00 0.00 0.00 74 1011.6
20260508140926 11 50 1.6 4.8 0.00 0.00 0.00 75 1012.1
20260508140423 11 65 1.6 4.8 0.00 0.00 0.00 76 1011.9
20260508135917 11 101 1.6 4.8 0.00 0.00 0.00 76 1011.9
20260508135418 10 89 0.0 6.4 0.00 0.00 0.00 76 1012.0
20260508134916 10 16 0.0 6.4 0.00 0.00 0.00 76 1012.0
20260508134417 10 47 3.2 6.4 0.00 0.00 0.00 76 1011.8
20260508133914 10 128 0.0 4.8 0.00 0.00 0.00 77 1012.1
20260508133651 10 69 3.2 4.8 0.00 0.00 0.00 77 1012.1
20260508133139 10 70 1.6 4.8 0.00 0.00 0.00 77 1012.0
20260508132414 10 77 1.6 4.8 0.00 0.00 0.00 77 1011.7
20260508132134 9 135 0.0 4.8 0.00 0.00 0.00 77 1011.9
20260508131414 9 83 1.6 4.8 0.00 0.00 0.00 77 1011.9
20260508130911 8 81 1.6 3.2 0.00 0.00 0.00 77 1011.9
20260508130413 8 122 0.0 4.8 0.00 0.00 0.00 77 1012.0
20260508125915 8 104 1.6 4.8 0.00 0.00 0.00 78 1011.9
20260508125410 8 137 3.2 3.2 0.00 0.00 0.00 78 1012.0
20260508124909 8 87 0.0 3.2 0.00 0.00 0.00 78 1012.1
20260508124411 8 89 0.0 4.8 0.00 0.00 0.00 78 1012.1
20260508123907 7 122 0.0 4.8 0.00 0.00 0.00 78 1012.0
20260508123404 7 127 3.2 4.8 0.00 0.00 0.00 78 1012.0
20260508122902 7 59 0.0 3.2 0.00 0.00 0.00 78 1011.9
20260508122413 7 96 0.0 3.2 0.00 0.00 0.00 78 1012.0
20260508122120 6 76 0.0 3.2 0.00 0.00 0.00 78 1011.8
20260508121402 6 58 0.0 3.2 0.00 0.00 0.00 77 1011.8
20260508121119 6 66 0.0 3.2 0.00 0.00 0.00 77 1011.9
20260508120848 6 94 1.6 3.2 0.00 0.00 0.00 77 1011.7
20260508115900 6 81 0.0 3.2 0.00 0.00 0.00 77 1011.8
20260508115400 6 81 1.6 3.2 0.00 0.00 0.00 77 1011.5
20260508114905 6 76 0.0 3.2 0.00 0.00 0.00 77 1011.6
20260508114406 5 79 1.6 3.2 0.00 0.00 0.00 77 1011.6
20260508113858 5 94 1.6 3.2 0.00 0.00 0.00 77 1011.8
20260508113358 5 89 1.6 3.2 0.00 0.00 0.00 77 1011.8
20260508113120 5 89 1.6 3.2 0.00 0.00 0.00 76 1011.6
20260508112624 5 89 1.6 3.2 0.00 0.00 0.00 76 1011.4
20260508111907 5 89 1.6 3.2 0.00 0.00 0.00 76 1011.5
20260508111405 5 89 0.0 3.2 0.00 0.00 0.00 76 1011.6
20260508110856 5 92 1.6 3.2 0.00 0.00 0.00 76 1011.6
20260508110846 5 102 0.0 3.2 0.00 0.00 0.00 76 1011.4
20260508105856 5 103 1.6 3.2 0.00 0.00 0.00 76 1011.2
20260508105356 5 95 1.6 3.2 0.00 0.00 0.00 76 1011.4
20260508104854 5 97 3.2 3.2 0.00 0.00 0.00 76 1011.5
20260508104408 5 98 0.0 3.2 0.00 0.00 0.00 76 1011.2
20260508103855 5 98 1.6 3.2 0.00 0.00 0.00 75 1011.0
20260508103355 5 97 1.6 3.2 0.00 0.00 0.00 75 1011.1
20260508102849 5 92 1.6 3.2 0.00 0.00 0.00 75 1011.1
20260508102355 5 101 1.6 3.2 0.00 0.00 0.00 75 1011.3
20260508102345 5 93 1.6 3.2 0.00 0.00 0.00 75 1011.3
20260508101354 5 74 1.6 3.2 0.00 0.00 0.00 75 1011.1
20260508101343 5 97 0.0 3.2 0.00 0.00 0.00 75 1011.2
20260508100354 5 100 3.2 3.2 0.00 0.00 0.00 75 1011.2
20260508100111 5 89 3.2 3.2 0.00 0.00 0.00 75 1011.2
20260508095352 5 98 3.2 3.2 0.00 0.00 0.00 75 1011.2
20260508094851 5 77 1.6 3.2 0.00 0.00 0.00 75 1011.7
20260508094353 5 98 1.6 3.2 0.00 0.00 0.00 75 1011.6
20260508093851 5 96 1.6 3.2 0.00 0.00 0.00 75 1011.6
20260508093400 5 88 1.6 3.2 0.00 0.00 0.00 75 1011.5
20260508092851 5 70 1.6 3.2 0.00 0.00 0.00 74 1011.3
20260508092352 5 97 0.0 3.2 0.00 0.00 0.00 74 1011.2
20260508092112 5 92 1.6 3.2 0.00 0.00 0.00 74 1011.3
20260508091350 5 95 1.6 3.2 0.00 0.00 0.00 74 1011.2
20260508090849 5 92 1.6 3.2 0.00 0.00 0.00 74 1011.3
20260508090355 5 89 1.6 3.2 0.00 0.00 0.00 74 1011.4
20260508085848 5 93 1.6 3.2 0.00 0.00 0.00 74 1011.4
20260508085350 5 88 1.6 3.2 0.00 0.00 0.00 73 1011.3
20260508084849 5 99 1.6 3.2 0.00 0.00 0.00 73 1011.4
20260508084350 5 95 1.6 3.2 0.00 0.00 0.00 73 1011.4
20260508083848 5 93 1.6 3.2 0.00 0.00 0.00 73 1011.2
20260508083349 5 92 1.6 3.2 0.00 0.00 0.00 73 1011.4
20260508082854 5 93 1.6 3.2 0.00 0.00 0.00 73 1011.5
20260508082349 5 94 1.6 3.2 0.00 0.00 0.00 73 1011.2
20260508081846 5 94 1.6 3.2 0.00 0.00 0.00 73 1011.2
20260508081348 5 89 0.0 3.2 0.00 0.00 0.00 73 1011.5
20260508080846 5 97 1.6 3.2 0.00 0.00 0.00 72 1011.2
20260508080347 5 89 1.6 3.2 0.00 0.00 0.00 72 1011.8
20260508075855 6 89 1.6 3.2 0.00 0.00 0.00 72 1011.4
20260508075347 6 92 1.6 3.2 0.00 0.00 0.00 72 1011.7
20260508074843 6 89 1.6 3.2 0.00 0.00 0.00 72 1011.2
20260508074611 6 71 0.0 3.2 0.00 0.00 0.00 72 1011.5
20260508073844 6 87 1.6 3.2 0.00 0.00 0.00 72 1011.3
20260508073345 6 62 0.0 3.2 0.00 0.00 0.00 72 1011.4
20260508072844 6 97 1.6 3.2 0.00 0.00 0.00 71 1011.6
20260508072349 6 91 0.0 3.2 0.00 0.00 0.00 71 1011.7
20260508071843 6 76 0.0 3.2 0.00 0.00 0.00 71 1011.5
20260508071344 6 82 1.6 3.2 0.00 0.00 0.00 71 1011.7
20260508070842 6 89 1.6 3.2 0.00 0.00 0.00 71 1011.5
20260508070343 6 81 1.6 3.2 0.00 0.00 0.00 71 1011.9
20260508070107 6 80 1.6 3.2 0.00 0.00 0.00 71 1011.6
20260508065350 6 96 0.0 3.2 0.00 0.00 0.00 71 1011.8
20260508064840 6 87 1.6 3.2 0.00 0.00 0.00 71 1011.8
20260508064342 6 83 1.6 3.2 0.00 0.00 0.00 71 1011.7
20260508063839 6 71 0.0 3.2 0.00 0.00 0.00 71 1011.7
20260508063340 6 89 0.0 3.2 0.00 0.00 0.00 70 1011.6
20260508063328 6 82 1.6 3.2 0.00 0.00 0.00 70 1011.6
20260508062340 6 93 1.6 3.2 0.00 0.00 0.00 70 1011.6
20260508061847 6 93 1.6 3.2 0.00 0.00 0.00 70 1011.5
20260508061340 6 91 1.6 3.2 0.00 0.00 0.00 69 1011.5
20260508061059 6 105 3.2 3.2 0.00 0.00 0.00 69 1011.7
20260508060339 6 87 1.6 3.2 0.00 0.00 0.00 69 1012.0
20260508055837 6 78 0.0 3.2 0.00 0.00 0.00 69 1011.5
20260508055339 6 83 1.6 3.2 0.00 0.00 0.00 69 1011.7
20260508054943 6 103 1.6 3.2 0.00 0.00 0.00 69 1011.6
20260508053337 6 89 0.0 3.2 0.00 0.00 0.00 68 1012.0
20260508052835 6 81 0.0 3.2 0.00 0.00 0.00 68 1012.1
20260508052337 6 89 0.0 3.2 0.00 0.00 0.00 68 1012.1
20260508052058 6 69 0.0 3.2 0.00 0.00 0.00 68 1012.0
20260508051343 6 83 1.6 3.2 0.00 0.00 0.00 67 1012.1
20260508050834 6 73 0.0 3.2 0.00 0.00 0.00 67 1012.1
20260508050336 6 84 0.0 3.2 0.00 0.00 0.00 67 1011.9
20260508050057 6 83 1.6 3.2 0.00 0.00 0.00 67 1011.9
20260508045335 6 97 1.6 3.2 0.00 0.00 0.00 66 1011.7
20260508044834 7 84 1.6 3.2 0.00 0.00 0.00 66 1012.1
20260508044604 7 87 1.6 3.2 0.00 0.00 0.00 66 1012.0
20260508043836 7 88 1.6 3.2 0.00 0.00 0.00 66 1011.8
20260508043334 7 89 1.6 3.2 0.00 0.00 0.00 65 1011.8
20260508042832 7 81 1.6 3.2 0.00 0.00 0.00 65 1011.8
20260508042608 7 87 1.6 3.2 0.00 0.00 0.00 65 1011.7
20260508041838 7 83 1.6 3.2 0.00 0.00 0.00 65 1011.8
20260508041345 7 99 1.6 3.2 0.00 0.00 0.00 65 1012.1
20260508040836 7 98 1.6 3.2 0.00 0.00 0.00 64 1011.7
20260508040610 7 102 0.0 3.2 0.00 0.00 0.00 64 1011.8
20260508035831 7 92 0.0 3.2 0.00 0.00 0.00 64 1011.8
20260508035555 7 101 1.6 3.2 0.00 0.00 0.00 63 1011.8
20260508034830 8 102 1.6 3.2 0.00 0.00 0.00 63 1012.2
20260508034331 8 89 0.0 3.2 0.00 0.00 0.00 63 1012.1
20260508033841 8 89 0.0 3.2 0.00 0.00 0.00 63 1012.0
20260508033600 8 84 3.2 3.2 0.00 0.00 0.00 63 1011.8
20260508032830 8 109 3.2 3.2 0.00 0.00 0.00 62 1012.0
20260508032331 8 89 0.0 3.2 0.00 0.00 0.00 62 1012.1
20260508031829 8 82 1.6 3.2 0.00 0.00 0.00 62 1012.0
20260508031325 8 89 1.6 3.2 0.00 0.00 0.00 62 1012.1
20260508030824 8 101 1.6 3.2 0.00 0.00 0.00 61 1012.1
20260508030331 8 81 1.6 3.2 0.00 0.00 0.00 61 1012.3
20260508025828 9 93 0.0 3.2 0.00 0.00 0.00 61 1012.3
20260508025329 9 92 1.6 3.2 0.00 0.00 0.00 60 1012.3
20260508025053 9 71 1.6 3.2 0.00 0.00 0.00 60 1012.3
20260508024824 9 124 0.0 4.8 0.00 0.00 0.00 60 1012.2
20260508023827 10 92 1.6 4.8 0.00 0.00 0.00 60 1012.2
20260508023337 10 89 1.6 3.2 0.00 0.00 0.00 60 1012.2
20260508022828 10 108 0.0 3.2 0.00 0.00 0.00 59 1012.4
20260508022806 10 80 0.0 3.2 0.00 0.00 0.00 59 1012.4
20260508021826 10 101 3.2 4.8 0.00 0.00 0.00 59 1012.1
20260508021327 10 104 1.6 4.8 0.00 0.00 0.00 59 1012.2
20260508020826 10 76 0.0 4.8 0.00 0.00 0.00 58 1012.1
20260508020327 10 82 0.0 4.8 0.00 0.00 0.00 58 1011.9
20260508015838 10 89 1.6 3.2 0.00 0.00 0.00 58 1012.2
20260508015331 10 95 1.6 3.2 0.00 0.00 0.00 58 1012.3
20260508014825 10 100 1.6 4.8 0.00 0.00 0.00 57 1012.1
20260508014325 10 115 0.0 6.4 0.00 0.00 0.00 57 1012.1
20260508013824 10 95 1.6 8.0 0.00 0.00 0.00 56 1012.2
20260508013325 10 76 0.0 8.0 0.00 0.00 0.00 56 1012.0
20260508013046 10 89 0.0 4.8 0.00 0.00 0.00 56 1011.8
20260508012552 10 66 0.0 6.4 0.00 0.00 0.00 55 1012.2
20260508011823 10 88 1.6 6.4 0.00 0.00 0.00 55 1011.7
20260508011545 10 113 3.2 3.2 0.00 0.00 0.00 55 1011.9
20260508010822 11 51 3.2 6.4 0.00 0.00 0.00 55 1011.8
20260508010323 11 51 1.6 8.0 0.00 0.00 0.00 53 1012.0
20260508005822 11 102 1.6 8.0 0.00 0.00 0.00 53 1011.5
20260508005330 11 77 0.0 4.8 0.00 0.00 0.00 52 1011.7
20260508005142 11 214 0.0 6.4 0.00 0.00 0.00 52 1011.5
20260508003821 12 21 1.6 6.4 0.00 0.00 0.00 51 1011.5
20260508003322 12 60 1.6 6.4 0.00 0.00 0.00 51 1011.4
20260508002820 12 55 0.0 3.2 0.00 0.00 0.00 50 1011.3
20260508002326 12 98 3.2 6.4 0.00 0.00 0.00 50 1011.3
20260508001818 12 105 3.2 6.4 0.00 0.00 0.00 50 1011.3
20260508001542 12 89 3.2 6.4 0.00 0.00 0.00 49 1011.3
20260508000819 12 128 4.8 6.4 0.00 0.00 0.00 49 1011.1
20260508000320 12 310 0.0 6.4 0.00 0.00 0.00 49 1011.2
20260507235818 12 114 1.6 6.4 0.00 0.00 0.00 49 1011.4
20260507235328 12 129 0.0 6.4 0.00 0.00 0.00 49 1011.6
20260507234818 12 139 0.0 6.4 0.00 0.00 0.00 49 1011.3
20260507234319 12 27 0.0 6.4 0.00 0.00 0.00 48 1011.0
20260507233817 12 166 1.6 4.8 0.00 0.00 0.00 48 1011.5
20260507233319 12 103 1.6 4.8 0.00 0.00 0.00 47 1011.2
20260507232817 13 102 0.0 4.8 0.00 0.00 0.00 47 1011.3
20260507232313 13 198 0.0 3.2 0.00 0.00 0.00 47 1011.5
20260507232043 13 66 0.0 4.8 0.00 0.00 0.00 47 1011.5
20260507231318 13 71 1.6 6.4 0.00 0.00 0.00 48 1011.4
20260507230816 13 94 1.6 6.4 0.00 0.00 0.00 47 1011.3
20260507230318 13 58 1.6 6.4 0.00 0.00 0.00 47 1011.4
20260507225816 13 340 0.0 6.4 0.00 0.00 0.00 48 1011.3
20260507225317 13 53 0.0 6.4 0.00 0.00 0.00 48 1011.5
20260507224825 13 21 1.6 6.4 0.00 0.00 0.00 47 1011.4
20260507224318 13 33 1.6 6.4 0.00 0.00 0.00 46 1011.5
20260507223815 13 76 0.0 6.4 0.00 0.00 0.00 46 1011.6
20260507223316 14 129 0.0 6.4 0.00 0.00 0.00 46 1011.8
20260507222814 14 314 3.2 4.8 0.00 0.00 0.00 48 1011.7
20260507222315 14 29 3.2 8.0 0.00 0.00 0.00 49 1011.5
20260507221813 14 161 0.0 8.0 0.00 0.00 0.00 47 1011.5
20260507221553 14 318 3.2 6.4 0.00 0.00 0.00 47 1011.5
20260507220816 14 82 1.6 4.8 0.00 0.00 0.00 48 1011.5
20260507220313 14 331 0.0 6.4 0.00 0.00 0.00 48 1011.4
20260507220034 14 41 0.0 6.4 0.00 0.00 0.00 48 1011.5
20260507215313 14 341 0.0 6.4 0.00 0.00 0.00 48 1011.6